Content
SEND FEEDBACK

Daily
Averages
Monthly
Summary
Finland

HELSINKI, FINLAND


Home > Europe > Finland
Elevation: 184 feet     Latitude: 60 19N     Longitude: 024 58E

WEATHER
 
SELECT A DAY
Number of Records: 312,084;   Date Range: 7/1/96 - 8/31/14
 
SHARE

PRINT THIS DATA

[ ← Previous Day ]
WEATHER ALMANAC - JANUARY 10, 2013
[ Next Day → ]
[ °C ]   °F
Weather ElementAverageHighLow
Temperature23.8 °F25 °F (2:00 am)21.2 °F (7:20 pm)
Dewpoint20.7 °F23 °F (12:50 am)15.8 °F (11:20 pm)
Humidity87.8 %93 % (12:50 am)80 % (12:20 pm)
Barometer29.69 in29.80 in (11:20 pm)29.62 in (4:50 am)
Wind Speed9.9 mph18.4 mph (11:20 pm)
Weather ElementAverage
Visibility6.6 mi
Wind DirectionENE (79.6 °)

Weather ElementTotal
Precipitation---
Heating Degree Days41.9 (Base 65)
Averaged from 51 records on January 10, 2013
WEATHER CONDITIONS BREAKOUT
WIND DIRECTION BREAKOUT
WEATHER BY HOUR - JANUARY 10, 2013
[ °C ]   °F
Local TimeTemperatureDewpointHumidityBarometerVisibilityWind DirectionWind SpeedGust SpeedPrecipitationEventsConditions
12:50 AM24.8 °F23.0 °F93 %29.65 in6.2 miNNE (20°)3.5 mphMostly Cloudy
1:20 AM24.8 °F23.0 °F93 %29.65 in6.2 miNorth (350°)3.5 mphMostly Cloudy
1:50 AM24.8 °F23.0 °F93 %29.65 in6.2 miNorth (350°)4.6 mphMostly Cloudy
2:00 AM25.0 °F23.0 °F90 %29.68 in31.0 miNorth6.7 mphOvercast
2:20 AM24.8 °F23.0 °F93 %29.65 in6.2 miNorth (350°)3.5 mphMostly Cloudy
2:50 AM24.8 °F23.0 °F93 %29.65 in6.2 miNNW (330°)3.5 mphMostly Cloudy
3:20 AM24.8 °F23.0 °F93 %29.65 in6.2 miNorth (360°)5.8 mphMostly Cloudy
3:50 AM24.8 °F23.0 °F93 %29.65 in6.2 miNorth (10°)5.8 mphMostly Cloudy
4:20 AM24.8 °F23.0 °F93 %29.65 in6.2 miNorth (10°)5.8 mphMostly Cloudy
4:50 AM24.8 °F23.0 °F93 %29.62 in6.2 miNorth (10°)6.9 mphMostly Cloudy
5:20 AM24.8 °F23.0 °F93 %29.62 in6.2 miNNE (30°)4.6 mphMostly Cloudy
5:50 AM24.8 °F23.0 °F93 %29.62 in6.2 miNorth (10°)5.8 mphMostly Cloudy
6:20 AM24.8 °F21.2 °F86 %29.65 in6.2 miNorth (10°)6.9 mphMostly Cloudy
6:50 AM24.8 °F21.2 °F86 %29.65 in6.2 miNorth (360°)8.1 mphMostly Cloudy
7:20 AM23.0 °F21.2 °F93 %29.65 in6.2 miNorth (360°)8.1 mphOvercast
7:50 AM23.0 °F21.2 °F93 %29.65 in6.2 miNorth (360°)8.1 mphMostly Cloudy
8:00 AM24.0 °F21.0 °F85 %29.68 in31.0 miNNE (20°)8.9 mphOvercast
8:20 AM24.8 °F21.2 °F86 %29.65 in6.2 miNorth (10°)8.1 mphMostly Cloudy
8:50 AM24.8 °F21.2 °F86 %29.65 in6.2 miNNE (20°)9.2 mphMostly Cloudy
9:20 AM24.8 °F21.2 °F86 %29.68 in6.2 miNNE (20°)5.8 mphSnowLight Snow Showers
9:50 AM24.8 °F21.2 °F86 %29.68 in6.2 miNorth (10°)6.9 mphMostly Cloudy
10:20 AM24.8 °F21.2 °F86 %29.68 in6.2 miNNE (20°)6.9 mphMostly Cloudy
10:50 AM24.8 °F21.2 °F86 %29.68 in6.2 miNNE (20°)4.6 mphMostly Cloudy
11:20 AM24.8 °F21.2 °F86 %29.68 in6.2 miNNE (20°)8.1 mphSnowLight Snow Grains
11:50 AM24.8 °F21.2 °F86 %29.68 in6.2 miNNE (20°)10.4 mphSnowLight Snow Grains
12:20 PM24.8 °F19.4 °F80 %29.68 in6.2 miNNE (20°)11.5 mphMostly Cloudy
12:50 PM24.8 °F21.2 °F86 %29.68 in6.2 miNNE (20°)6.9 mphMostly Cloudy
1:20 PM24.8 °F21.2 °F86 %29.68 in6.2 miNorth (360°)8.1 mphMostly Cloudy
1:50 PM24.8 °F21.2 °F86 %29.68 in6.2 miNorth (10°)11.5 mphSnowLight Snow Grains
2:00 PM25.0 °F22.0 °F84 %29.71 in12.0 miNNE (20°)13.4 mphSnowSnow Grains
2:20 PM24.8 °F23.0 °F93 %29.68 in6.2 miNorth (10°)10.4 mphSnowLight Snow Grains
2:50 PM24.8 °F21.2 °F86 %29.68 in6.2 miNorth (10°)10.4 mphSnowLight Snow Grains
3:20 PM24.8 °F21.2 °F86 %29.68 in6.2 miNorth (10°)10.4 mphSnowLight Snow Grains
3:50 PM24.8 °F21.2 °F86 %29.68 in6.2 miNNE (20°)10.4 mphSnowLight Snow Grains
4:20 PM24.8 °F23.0 °F93 %29.68 in6.2 miNNE (20°)11.5 mphSnowLight Snow
4:50 PM24.8 °F21.2 °F86 %29.71 in5.0 miNNE (20°)15.0 mphSnowLight Snow
5:20 PM23.0 °F19.4 °F86 %29.71 in3.7 miNNE (30°)13.8 mphSnowLight Snow
5:50 PM23.0 °F19.4 °F86 %29.71 in2.5 miNNE (30°)12.7 mphSnowLight Snow
6:20 PM23.0 °F19.4 °F86 %29.74 in3.1 miNNE (20°)12.7 mphSnowLight Snow
6:50 PM23.0 °F19.4 °F86 %29.74 in1.2 miNNE (30°)13.8 mphSnowLight Snow
7:20 PM21.2 °F17.6 °F86 %29.74 in5.0 miNNE (30°)17.3 mphSnowLight Snow
7:50 PM21.2 °F17.6 °F86 %29.74 in4.3 miNNE (30°)15.0 mphSnowLight Snow
8:00 PM22.0 °F19.0 °F83 %29.77 in4.0 miNE (40°)15.7 mphSnowLight Snow
8:20 PM21.2 °F17.6 °F86 %29.74 in6.2 miNNE (30°)16.1 mphSnowLight Snow
8:50 PM21.2 °F17.6 °F86 %29.74 in2.8 miNNE (30°)15.0 mphSnowLight Snow
9:20 PM21.2 °F17.6 °F86 %29.77 in1.6 miNNE (30°)15.0 mphSnowLight Snow
9:50 PM21.2 °F17.6 °F86 %29.77 in3.7 miNNE (30°)13.8 mphSnowLight Snow
10:20 PM21.2 °F17.6 °F86 %29.77 in3.7 miNNE (30°)15.0 mphSnowLight Snow
10:50 PM21.2 °F17.6 °F86 %29.77 in3.1 miNNE (30°)16.1 mphSnowLight Snow
11:20 PM21.2 °F15.8 °F80 %29.80 in6.2 miNE (40°)18.4 mphSnowLight Snow
11:50 PM21.2 °F17.6 °F86 %29.80 in6.2 miNNE (30°)15.0 mphSnowLight Snow
Hourly data recorded from EFHK, located miles away from Helsinki, Finland







STORIES FROM OUR PARTNERS